Location: České Budějovice
(48.9747°N, 14.4743°E)
Time: 18:53:01
(UTC+01:00)

ISS - Visible Passes

Search period start: 04 December 2022 00:00
Search period end: 14 December 2022 00:00
Orbit: 414 x 420 km, 51.6° (Epoch: 04 December)

Date Brightness Start Highest point End Pass type
(mag) Time Alt. Az. Time Alt. Az. Time Alt. Az.
04 Dec -3.7 17:04:27 10° WNW 17:07:48 80° SSW 17:11:08 10° ESE visible
04 Dec -1.3 18:41:47 10° W 18:44:11 18° SW 18:44:45 18° SSW visible
05 Dec -1.7 17:53:18 10° W 17:56:12 27° SW 17:59:04 10° SSE visible
06 Dec -2.4 17:04:58 10° WNW 17:08:09 40° SSW 17:11:18 10° SE visible
07 Dec -0.6 17:54:44 10° WSW 17:56:14 12° SW 17:57:43 10° SSW visible
08 Dec -0.8 17:05:47 10° W 17:08:14 19° SW 17:10:41 10° S visible
